Location: Eckley Miners' Village
(40.9930°N, 75.8630°W)
Time: 11:14:28
(UTC-04:00)

Vanguard 1 Rocket - Pass Details

Date: 15 March 2026
Orbit: 654 x 4213 km, 34.3° (Epoch: 11 April)

Event Time Altitude Azimuth Distance (km) Brightness Sun altitude
Rises 08:55:42 0° 248° (WSW) 3,409 9.9 17.8°
Reaches altitude 10° 08:58:35 10° 239° (WSW) 2,243 9.1 18.3°
Maximum altitude 09:02:55 34° 174° (S) 1,067 8.3 19.1°
Drops below altitude 10° 09:07:00 10° 107° (ESE) 2,105 11.6 19.8°
Sets 09:09:37 0° 98° (E) 3,164 11.6 20.3°
